GEFSMA_con_prob3kmehi_036.txt.gz
EHI
1 1 0 0 0 0 0 0 0 0 0 0 0 0 0 0 0 0 3 10 9 4 1 0 0 0 0 1 0 1 2 3 3 3 3 3 3 3 3 1 0 0 0
2 2 1 1 0 0 0 0 0 0 0 0 0 0 0 0 0 0 1 6 10 7 2 1 0 0 1 2 2 2 2 2 2 3 3 3 3 3 3 2 0 0 0
3 3 3 2 1 1 1 1 0 0 0 0 0 0 1 1 0 0 1 3 6 6 5 3 1 1 2 3 6 6 4 1 1 2 3 3 3 2 2 1 0 0 0
6 6 6 5 3 3 3 2 1 1 2 1 0 0 1 1 1 1 2 2 3 4 4 4 3 2 2 3 6 9 9 5 2 1 2 2 1 1 1 0 0 0 0
17 17 14 10 8 7 6 4 3 4 4 2 1 0 1 1 2 2 2 2 2 2 2 3 4 2 1 2 6 11 14 10 4 1 1 1 1 0 0 0 0 0 0
35 32 25 18 15 14 10 6 5 5 5 4 2 1 1 1 1 2 2 1 1 1 0 1 2 1 1 2 6 11 14 13 7 2 0 0 0 0 0 0 0 0 0
43 41 35 28 25 22 15 8 7 7 5 6 6 4 1 0 1 2 2 1 1 0 0 0 1 1 2 3 4 7 9 10 8 4 1 1 1 1 1 0 0 0 0
44 42 39 35 31 27 20 13 9 8 6 8 10 8 3 0 0 1 2 2 1 0 0 0 1 2 3 4 4 3 3 5 6 5 3 2 2 2 1 0 0 0 0
46 44 39 36 33 29 23 17 12 9 9 11 12 11 6 2 0 0 1 2 2 1 0 0 1 1 1 3 5 2 1 1 2 3 2 2 2 1 0 0 0 0 0
49 44 36 33 31 28 24 20 16 14 13 14 13 10 7 4 2 1 1 1 2 1 0 0 0 0 0 2 4 2 0 0 0 1 1 0 0 0 0 0 0 0 0
45 38 31 30 29 27 26 24 20 17 15 12 9 7 5 4 4 4 2 0 1 1 0 0 0 0 0 2 3 1 0 0 0 0 0 0 0 0 0 0 0 0 0
37 30 25 27 28 26 25 22 19 16 13 8 4 3 3 2 3 4 2 0 0 0 0 0 0 1 1 2 2 1 0 0 0 0 0 0 0 0 0 0 0 0 0
31 25 21 23 24 21 18 17 16 14 10 6 2 2 2 1 1 2 1 0 0 0 0 0 0 1 2 2 2 0 0 0 0 0 0 0 0 0 0 0 0 0 0
27 23 19 19 19 15 12 12 13 10 6 2 1 1 1 0 0 0 0 0 0 0 0 0 0 0 1 1 1 0 0 0 0 0 0 0 0 0 0 0 0 0 0
19 16 15 15 14 11 8 7 6 4 2 0 0 0 0 0 0 0 0 0 0 0 0 0 0 0 0 0 0 0 0 0 0 0 0 0 0 0 0 0 0 0 0
10 9 8 9 8 6 4 3 2 1 0 0 1 0 0 0 0 0 0 0 0 0 0 0 0 0 0 0 0 0 0 0 0 0 0 0 0 0 0 0 0 0 0
5 4 3 3 2 1 1 1 1 0 0 0 0 0 0 0 0 0 0 0 0 0 0 0 0 0 0 0 0 0 0 0 0 0 0 0 0 0 0 0 0 0 0
1 1 1 0 0 0 0 0 0 0 0 0 0 0 0 0 0 0 0 0 0 0 0 0 0 0 0 0 0 0 0 0 0 0 0 0 0 0 0 0 0 0 0
0 0 0 0 0 0 0 0 0 0 0 0 0 0 0 0 0 0 0 0 0 0 0 0 0 0 0 0 0 0 0 0 0 0 0 0 0 0 0 0 0 0 0
0 0 0 0 0 0 0 0 0 0 0 0 0 0 0 0 0 0 0 0 0 0 0 0 0 0 0 0 0 0 0 0 0 0 0 0 0 0 0 0 0 0 0
0 0 0 0 0 0 0 0 0 0 0 0 0 0 0 0 0 0 0 0 0 0 0 0 0 0 0 0 0 0 0 0 0 0 0 0 0 0 0 0 0 0 0
0 0 0 0 0 0 0 0 0 0 0 0 0 0 0 0 0 0 0 0 0 0 0 0 0 0 0 0 0 0 0 0 0 0 0 0 0 0 0 0 0 0 0
0 0 0 0 0 0 0 0 0 0 0 0 0 0 0 0 0 0 0 0 0 0 0 0 0 0 0 0 0 0 0 0 0 0 0 0 0 0 0 0 0 0 0
0 0 0 0 0 0 0 0 0 0 0 0 0 0 0 0 0 0 0 0 0 0 0 0 0 0 0 0 0 0 0 0 0 0 0 0 0 0 0 0 0 0 0
0 0 0 0 0 0 0 0 0 0 0 0 0 0 0 0 0 0 0 0 0 0 0 0 0 0 0 0 0 0 0 0 0 0 0 0 0 0 0 0 0 0 0
0 0 0 0 0 0 0 0 0 0 0 0 0 0 0 0 0 0 0 0 0 0 0 0 0 0 0 0 0 0 0 0 0 0 0 0 0 0 0 0 0 0 0

GEFSMA_con_prob3kmehi_042.txt.gz
EHI
43 45 63 78 66 53 61 65 53 44 36 19 6 2 3 3 5 17 46 79 96 96 93 86 76 61 46 32 21 14 10 9 9 8 6 4 3 2 1 0 0 0 0
65 70 80 86 75 59 60 66 61 56 44 25 11 6 7 7 8 17 40 71 91 96 93 86 76 66 54 41 30 22 17 16 14 10 7 5 4 2 0 0 0 0 0
88 92 93 91 83 72 67 70 69 61 48 33 20 13 12 12 13 20 38 60 78 87 89 84 75 68 61 52 43 34 29 26 21 13 7 5 4 2 0 0 0 0 0
96 97 95 89 84 79 74 73 72 64 52 41 28 18 13 13 14 22 36 52 64 74 79 80 75 69 63 57 49 44 40 36 26 14 5 3 2 1 0 0 0 0 0
98 99 96 91 85 79 75 73 72 68 61 49 31 17 12 11 12 16 24 35 47 58 64 70 72 67 59 54 50 46 44 43 33 17 6 3 2 1 0 0 0 0 0
99 99 97 92 88 83 78 74 70 66 62 51 30 15 11 9 7 8 12 17 26 35 43 55 64 61 53 46 41 39 39 43 39 24 12 7 4 1 0 0 0 0 0
98 98 96 93 91 87 81 73 67 60 54 46 32 19 11 7 5 7 13 19 20 22 28 40 51 56 51 38 29 28 29 33 36 30 19 11 6 2 1 0 0 0 0
94 94 94 93 92 88 80 70 63 54 44 39 32 19 9 6 5 8 18 29 34 34 32 30 35 43 44 34 21 16 17 21 25 26 21 13 6 3 1 0 0 0 0
89 90 90 90 90 87 78 67 57 48 40 36 28 16 7 4 4 8 15 27 40 44 36 23 18 23 27 23 15 8 7 9 13 17 17 12 6 3 1 0 0 0 0
87 86 85 85 86 84 75 65 56 49 41 33 24 13 6 4 4 4 7 14 25 32 26 15 10 11 11 11 7 3 1 2 4 8 10 9 5 2 1 0 0 0 0
87 85 83 84 84 80 72 64 59 53 41 30 21 13 8 4 3 2 2 4 8 12 13 9 7 6 5 3 2 1 0 0 0 2 4 4 2 1 1 0 0 0 0
85 84 83 83 81 74 67 64 60 51 38 27 21 16 10 6 4 2 0 0 1 2 4 4 3 3 2 1 1 0 0 0 0 0 1 1 0 0 0 0 0 0 0
79 79 79 79 75 67 61 59 55 45 33 25 21 17 12 9 8 4 1 0 0 0 1 1 0 0 0 0 0 0 0 0 0 0 0 0 0 0 0 0 0 0 0
67 68 69 70 67 59 50 48 46 39 31 25 20 16 14 12 10 6 1 0 0 0 0 0 0 0 0 0 0 0 0 0 0 0 0 0 0 0 0 0 0 0 0
51 52 52 52 49 41 34 33 33 30 27 24 20 17 16 14 10 5 1 0 0 0 0 0 0 0 0 0 0 0 0 0 0 0 0 0 0 0 0 0 0 0 0
32 33 32 30 24 18 16 18 19 18 18 19 18 16 14 11 7 3 0 0 0 0 0 0 0 0 0 0 0 0 0 0 0 0 0 0 0 0 0 0 0 0 0
16 16 16 14 9 6 6 7 8 8 10 11 10 9 7 5 3 1 0 0 0 0 0 0 0 0 0 0 0 0 0 0 0 0 0 0 0 0 0 0 0 0 0
5 6 8 8 6 4 3 2 2 3 3 4 3 2 1 1 0 0 0 0 0 0 0 0 0 0 0 0 0 0 0 0 0 0 0 0 0 0 0 0 0 0 0
1 2 4 5 4 3 1 1 1 1 0 0 0 0 0 0 0 0 0 0 0 0 0 0 0 0 0 0 0 0 0 0 0 0 0 0 0 0 0 0 0 0 0
0 0 1 1 1 1 0 0 0 0 0 0 0 0 0 0 0 0 0 0 0 0 0 0 0 0 0 0 0 0 0 0 0 0 0 0 0 0 0 0 0 0 0
0 0 0 0 0 0 0 0 0 0 0 0 0 0 0 0 0 0 0 0 0 0 0 0 0 0 0 0 0 0 0 0 0 0 0 0 0 0 0 0 0 0 0
0 0 0 0 0 0 0 0 0 0 0 0 0 0 0 0 0 0 0 0 0 0 0 0 0 0 0 0 0 0 0 0 0 0 0 0 0 0 0 0 0 0 0
0 0 0 0 0 0 0 0 0 0 0 0 0 0 0 0 0 0 0 0 0 0 0 0 0 0 0 0 0 0 0 0 0 0 0 0 0 0 0 0 0 0 0
0 0 0 0 0 0 0 0 0 0 0 0 0 0 0 0 0 0 0 0 0 0 0 0 0 0 0 0 0 0 0 0 0 0 0 0 0 0 0 0 0 0 0
0 0 0 0 0 0 0 0 0 0 0 0 0 0 0 0 0 0 0 0 0 0 0 0 0 0 0 0 0 0 0 0 0 0 0 0 0 0 0 0 0 0 0
0 0 0 0 0 0 0 0 0 0 0 0 0 0 0 0 0 0 0 0 0 0 0 0 0 0 0 0 0 0 0 0 0 0 0 0 0 0 0 0 0 0 0

GEFSMA_con_prob3kmehi_048.txt.gz
EHI
5 2 0 1 7 15 18 12 5 1 1 1 2 3 4 4 4 4 3 9 25 47 68 81 83 80 73 62 50 37 22 13 10 8 8 7 6 3 1 0 0 0 0
17 12 6 7 15 22 22 15 7 4 3 2 2 3 4 4 3 4 3 7 20 40 61 73 75 75 71 60 48 37 25 15 11 9 9 9 8 5 2 1 1 1 0
43 36 26 25 31 34 30 21 12 9 9 7 6 6 4 3 3 4 3 4 10 24 41 51 55 60 61 54 42 31 23 17 12 11 10 9 8 5 3 2 2 2 1
65 61 54 49 50 48 41 29 19 15 15 14 12 8 5 3 3 3 3 2 3 9 17 25 31 37 40 40 34 26 20 15 11 11 10 8 6 4 3 3 3 2 1
71 73 73 70 66 61 53 40 28 22 21 19 15 9 4 2 2 2 1 1 1 2 4 8 14 17 19 22 24 23 18 13 10 10 10 8 6 4 2 1 2 1 0
69 73 78 78 73 67 59 48 36 27 22 17 12 7 2 1 0 0 0 0 0 0 1 3 5 6 6 9 13 15 14 11 10 10 10 10 9 5 1 0 0 0 0
62 67 75 76 72 67 60 49 39 28 18 12 7 3 1 0 0 0 0 0 0 0 0 1 2 2 2 3 5 7 7 6 7 7 8 9 9 6 2 0 0 0 0
52 58 65 68 68 64 58 48 38 29 18 9 4 1 0 0 0 0 0 0 0 0 0 0 1 2 1 1 1 2 2 2 2 3 4 6 7 5 2 0 0 0 0
45 49 54 59 63 62 57 49 39 30 20 9 4 2 0 0 0 0 0 0 0 0 0 0 0 1 1 0 0 0 0 0 0 0 1 3 4 3 1 1 1 0 0
37 40 44 48 52 53 52 45 36 29 20 10 5 3 1 0 0 0 0 0 0 0 0 0 0 0 0 0 0 0 0 0 0 0 0 1 2 1 1 2 2 1 0
22 25 30 35 38 40 40 35 30 26 20 12 7 5 2 0 0 0 0 0 0 0 0 0 0 0 0 0 0 0 0 0 0 0 0 0 0 0 1 2 2 2 1
8 11 15 20 24 27 27 24 21 20 18 12 9 6 3 1 0 0 0 0 0 0 0 0 0 0 0 0 0 0 0 0 0 0 0 0 0 0 1 1 1 1 1
1 4 7 9 12 16 17 15 13 12 11 9 6 5 3 2 1 0 0 0 0 0 0 0 0 0 0 0 0 0 0 0 0 0 0 0 0 0 0 0 0 0 1
0 1 3 5 7 9 10 9 7 6 5 3 2 2 2 2 1 0 0 0 0 0 0 0 0 0 0 0 0 0 0 0 0 0 0 0 0 0 0 0 0 0 0
0 0 1 3 5 6 6 5 4 2 1 0 0 0 1 1 1 0 0 0 0 0 0 0 0 0 0 0 0 0 0 0 0 0 0 0 0 0 0 0 0 0 0
0 0 0 1 2 3 3 2 2 1 0 0 0 0 0 0 0 0 0 0 0 0 0 0 0 0 0 0 0 0 0 0 0 0 0 0 0 0 0 0 0 0 0
0 0 0 0 0 1 1 1 0 0 0 0 0 0 0 0 0 0 0 0 0 0 0 0 0 0 0 0 0 0 0 0 0 0 0 0 0 0 0 0 0 0 0
0 0 0 0 0 0 0 0 0 0 0 0 0 0 0 0 0 0 0 0 0 0 0 0 0 0 0 0 0 0 0 0 0 0 0 0 0 0 0 0 0 0 0
0 0 0 0 0 0 0 0 0 0 0 0 0 0 0 0 0 0 0 0 0 0 0 0 0 0 0 0 0 0 0 0 0 0 0 0 0 0 0 0 0 0 0
0 0 0 0 0 0 0 0 0 0 0 0 0 0 0 0 0 0 0 0 0 0 0 0 0 0 0 0 0 0 0 0 0 0 0 0 0 0 0 0 0 0 0
0 0 0 0 0 0 0 0 0 0 0 0 0 0 0 0 0 0 0 0 0 0 0 0 0 0 0 0 0 0 0 0 0 0 0 0 0 0 0 0 0 0 0
0 0 0 0 0 0 0 0 0 0 0 0 0 0 0 0 0 0 0 0 0 0 0 0 0 0 0 0 0 0 0 0 0 0 0 0 0 0 0 0 0 0 0
0 0 0 0 0 0 0 0 0 0 0 0 0 0 0 0 0 0 0 0 0 0 0 0 0 0 0 0 0 0 0 0 0 0 0 0 0 0 0 0 0 0 0
0 0 0 0 0 0 0 0 0 0 0 0 0 0 0 0 0 0 0 0 0 0 0 0 0 0 0 0 0 0 0 0 0 0 0 0 0 0 0 0 0 0 0
0 0 0 0 0 0 0 0 0 0 0 0 0 0 0 0 0 0 0 0 0 0 0 0 0 0 0 0 0 0 0 0 0 0 0 0 0 0 0 0 0 0 0
0 0 0 0 0 0 0 0 0 0 0 0 0 0 0 0 0 0 0 0 0 0 0 0 0 0 0 0 0 0 0 0 0 0 0 0 0 0 0 0 0 0 0

GEFSMA_con_prob3kmehi_054.txt.gz
EHI
5 4 3 1 0 0 1 1 1 0 0 0 0 0 0 0 0 0 0 0 1 2 3 3 2 2 2 2 6 12 17 16 11 7 4 3 3 2 1 0 0 0 0
7 5 3 1 1 1 2 2 1 0 0 0 0 0 0 0 0 0 0 0 1 3 3 3 4 4 4 5 7 10 12 11 9 6 3 3 3 2 1 0 0 0 0
9 7 5 4 5 6 6 4 3 3 3 2 2 1 0 1 2 1 1 2 2 2 3 3 4 5 6 8 8 7 7 7 6 4 2 2 1 1 0 0 0 0 0
11 12 11 10 14 17 16 13 13 13 10 6 4 2 2 2 3 3 4 4 4 2 2 2 2 3 5 7 7 7 6 6 6 4 2 1 0 0 0 0 0 0 0
16 18 18 19 24 29 27 25 28 28 21 11 6 4 4 3 3 4 5 5 5 3 1 0 1 1 3 4 5 7 8 8 6 4 2 1 0 0 0 0 0 0 0
23 25 25 27 33 36 32 33 37 35 26 16 9 6 5 3 2 3 4 4 4 2 0 0 1 1 2 3 3 7 10 11 7 4 2 2 2 2 1 0 0 0 0
21 24 27 31 36 37 33 34 38 34 26 18 12 8 5 2 1 2 2 2 1 0 0 1 2 2 3 3 2 6 11 14 12 6 1 1 2 2 1 0 0 0 0
13 15 18 22 27 30 29 32 34 31 24 18 13 10 5 1 0 0 0 0 0 0 0 1 1 2 3 2 2 4 8 12 13 7 1 0 1 1 0 0 0 0 0
7 7 8 9 13 18 21 24 27 27 22 17 12 9 6 2 0 0 0 0 0 0 1 0 1 1 2 2 1 2 3 5 6 5 1 0 0 0 0 0 0 0 0
3 3 2 3 5 9 11 13 17 20 18 14 9 7 5 3 1 0 0 0 0 0 0 0 0 0 0 1 1 0 0 1 1 1 1 1 1 0 0 0 0 0 0
1 1 0 1 2 4 5 5 8 11 13 11 7 5 4 3 2 0 0 0 0 0 0 0 0 0 0 0 0 0 0 0 0 0 0 0 0 0 0 0 0 0 0
0 0 0 0 1 1 2 2 2 4 6 6 6 5 6 6 5 2 0 0 0 0 0 0 0 0 0 0 0 0 0 0 0 0 0 0 0 0 0 0 0 0 0
0 0 0 0 0 0 0 0 1 1 1 1 3 5 7 7 5 2 1 0 0 0 0 0 0 0 0 0 0 0 0 0 0 0 0 0 0 0 0 0 0 0 0
0 0 0 0 0 0 0 0 0 0 0 0 1 3 4 3 2 1 1 0 0 0 0 0 0 0 0 0 0 0 0 0 0 0 0 0 0 0 0 0 0 0 0
0 0 0 0 0 0 0 0 0 0 0 0 0 1 1 1 0 0 0 0 0 0 0 0 0 0 0 0 0 0 0 0 0 0 0 0 0 0 0 0 0 0 0
0 0 0 0 0 0 0 0 0 0 0 0 0 0 0 0 0 0 0 0 0 0 0 0 0 0 0 0 0 0 0 0 0 0 0 0 0 0 0 0 0 0 0
0 0 0 0 0 0 0 0 0 0 0 0 0 0 0 0 0 0 0 0 0 0 0 0 0 0 0 0 0 0 0 0 0 0 0 0 0 0 0 0 0 0 0
0 0 0 0 0 0 0 0 0 0 0 0 0 0 0 0 0 0 0 0 0 0 0 0 0 0 0 0 0 0 0 0 0 0 0 0 0 0 0 0 0 0 0
0 0 0 0 0 0 0 0 0 0 0 0 0 0 0 0 0 0 0 0 0 0 0 0 0 0 0 0 0 0 0 0 0 0 0 0 0 0 0 0 0 0 0
0 0 0 0 0 0 0 0 0 0 0 0 0 0 0 0 0 0 0 0 0 0 0 0 0 0 0 0 0 0 0 0 0 0 0 0 0 0 0 0 0 0 0
0 0 0 0 0 0 0 0 0 0 0 0 0 0 0 0 0 0 0 0 0 0 0 0 0 0 0 0 0 0 0 0 0 0 0 0 0 0 0 0 0 0 0
0 0 0 0 0 0 0 0 0 0 0 0 0 0 0 0 0 0 0 0 0 0 0 0 0 0 0 0 0 0 0 0 0 0 0 0 0 0 0 0 0 0 0
0 0 0 0 0 0 0 0 0 0 0 0 0 0 0 0 0 0 0 0 0 0 0 0 0 0 0 0 0 0 0 0 0 0 0 0 0 0 0 0 0 0 0
0 0 0 0 0 0 0 0 0 0 0 0 0 0 0 0 0 0 0 0 0 0 0 0 0 0 0 0 0 0 0 0 0 0 0 0 0 0 0 0 0 0 0
0 0 0 0 0 0 0 0 0 0 0 0 0 0 0 0 0 0 0 0 0 0 0 0 0 0 0 0 0 0 0 0 0 0 0 0 0 0 0 0 0 0 0
0 0 0 0 0 0 0 0 0 0 0 0 0 0 0 0 0 0 0 0 0 0 0 0 0 0 0 0 0 0 0 0 0 0 0 0 0 0 0 0 0 0 0

GEFSMA_con_prob3kmehi_060.txt.gz
EHI
0 2 8 11 7 6 7 6 5 8 10 8 4 2 2 2 4 5 9 15 15 10 4 2 2 2 4 6 6 6 7 13 20 23 20 15 10 5 2 0 0 0 0
3 5 8 9 9 10 14 11 8 10 13 12 7 5 5 6 7 7 7 11 12 9 5 3 3 3 4 5 5 5 8 12 18 21 19 15 10 7 4 1 1 0 0
7 9 10 12 15 18 21 19 14 15 19 19 14 11 11 13 12 8 7 9 11 11 10 9 7 6 6 5 5 7 11 15 18 19 18 14 10 7 5 4 2 1 0
10 13 16 19 25 29 30 28 27 30 32 28 25 22 20 20 16 10 7 10 16 17 18 20 18 14 11 8 7 10 17 22 24 22 19 15 10 8 6 5 3 1 0
11 16 19 23 29 34 36 37 44 50 48 40 33 31 30 26 21 14 9 11 17 19 19 25 27 22 15 13 12 14 22 30 31 28 24 20 15 10 6 4 2 1 0
10 13 16 17 23 29 32 39 49 57 58 51 41 36 33 28 24 20 15 11 11 11 13 22 29 25 18 14 13 14 21 31 35 32 27 24 20 14 7 3 1 0 0
7 8 9 12 18 23 25 31 43 52 57 58 53 44 35 29 25 23 20 15 9 7 10 19 27 29 24 16 10 11 17 27 34 32 29 26 22 17 9 3 0 0 0
3 4 7 11 17 20 21 25 35 44 50 56 59 53 42 34 31 27 23 19 14 12 11 15 21 27 27 23 14 9 13 22 27 28 28 27 23 17 10 4 1 0 0
3 3 5 9 14 16 17 20 27 35 42 48 53 53 48 43 39 34 24 18 18 18 14 11 14 18 21 23 19 9 8 14 18 22 25 25 21 14 7 4 2 1 1
4 4 5 7 9 11 11 13 17 24 30 35 40 44 45 44 42 35 23 16 18 19 15 13 15 16 16 19 20 11 4 5 10 16 21 20 15 9 5 4 4 4 2
3 3 3 4 5 6 5 6 9 13 17 22 28 33 36 38 38 33 24 19 20 20 17 18 20 19 16 17 17 10 2 1 4 9 13 13 9 7 5 4 4 4 4
2 1 1 1 2 2 2 2 3 5 7 11 18 24 29 34 36 32 26 23 24 22 19 19 21 19 16 15 12 6 2 1 1 3 5 4 4 5 5 3 2 2 3
1 1 1 0 0 0 0 0 1 1 2 4 8 14 22 29 32 30 26 23 21 19 17 16 15 14 13 12 10 5 2 1 0 1 1 0 0 1 2 1 0 1 1
1 2 2 1 0 0 0 0 0 0 0 0 2 6 12 19 23 23 23 20 17 14 13 11 10 11 12 12 9 5 3 1 0 0 0 0 0 0 0 0 0 0 0
8 8 6 3 1 0 0 0 0 0 0 0 0 1 5 12 16 17 18 18 17 14 10 8 8 10 11 9 5 4 4 1 0 0 0 0 0 0 0 0 0 0 0
20 16 12 6 2 0 0 0 0 0 0 0 0 0 2 8 14 15 14 14 15 14 9 7 8 9 8 6 4 4 3 1 0 0 0 0 0 0 0 0 0 0 0
26 21 15 9 4 1 0 0 0 0 0 0 0 0 1 4 10 13 12 10 11 11 9 7 7 5 4 3 2 3 2 0 0 0 0 0 0 0 0 0 0 0 0
24 22 16 10 5 2 1 0 0 0 0 0 0 0 0 2 5 9 9 7 8 9 9 6 4 2 1 1 1 2 1 0 0 0 0 0 0 0 0 0 0 0 0
18 18 15 9 5 3 2 1 0 0 0 0 0 0 0 1 2 4 5 6 7 8 9 5 2 1 0 0 0 0 0 0 0 0 0 0 0 0 0 0 0 0 0
12 12 11 8 5 3 2 1 0 0 0 0 0 0 0 0 0 1 3 5 7 7 6 4 1 0 0 0 0 0 0 0 0 0 0 0 0 0 0 0 0 0 0
8 7 5 4 4 2 1 0 0 0 0 0 0 0 0 0 0 0 2 4 5 5 3 2 1 0 0 0 0 0 0 0 0 0 0 0 0 0 0 0 0 0 0
6 4 2 1 2 1 0 0 0 0 0 0 0 0 0 0 0 0 0 2 3 2 1 1 0 0 0 0 0 0 0 0 0 0 0 0 0 0 0 0 0 0 0
2 1 0 0 0 0 0 0 0 0 0 0 0 0 0 0 0 0 0 0 1 1 1 1 0 0 0 0 0 0 0 0 0 0 0 0 0 0 0 0 0 0 0
0 0 0 0 0 0 0 0 0 0 0 0 0 0 0 0 0 0 0 0 0 0 0 0 0 0 0 0 0 0 0 0 0 0 0 0 0 0 0 0 0 0 0
0 0 0 0 0 0 0 0 0 0 0 0 0 0 0 0 0 0 0 0 0 0 0 0 0 0 0 0 0 0 0 0 0 0 0 0 0 0 0 0 0 0 0
0 0 0 0 0 0 0 0 0 0 0 0 0 0 0 0 0 0 0 0 0 0 0 0 0 0 0 0 0 0 0 0 0 0 0 0 0 0 0 0 0 0 0